Location: Cerbedi�res
(48.2182°N, 1.4849°W)
Time: 21:32:12
(UTC+00:00)

Cosmos 1666 - Pass Details

Date: 03 March 2021
Orbit: 497 x 518 km, 82.5° (Epoch: 14 April)

Event Time Altitude Azimuth Distance (km) Brightness Sun altitude
Rises 20:03:40 0° 200° (SSW) 2,574 6.3 -22.3°
Reaches altitude 10° 20:05:49 10° 206° (SSW) 1,697 5.4 -22.6°
Maximum altitude 20:09:26 50° 283° (WNW) 643 3.5 -23.2°
Drops below altitude 10° 20:13:06 10° 360° (N) 1,717 5.5 -23.8°
Sets 20:15:17 0° 6° (N) 2,610 6.4 -24.2°
